Fosston, MN

4:58 PM CST on January 21, 2017 (GMT -0600)
Fosston

Weather History for KFSE - October, 2012

Change the Weather History Date:

Tuesday, October 9, 2012

  Actual Average Record
Temperature  
Mean Temperature 34 °F -  
Max Temperature 39 °F 57 °F 86 °F (2010)
Min Temperature 26 °F 33 °F 18 °F (1993)
Degree Days  
Heating Degree Days 32    
Moisture  
Dew Point 29 °F    
Average Humidity 82    
Maximum Humidity 100    
Minimum Humidity 65    
Precipitation  
Precipitation 0.01 in - - ()
Sea Level Pressure  
Sea Level Pressure 29.79 in    
Wind  
Wind Speed 11 mph (WNW)    
Max Wind Speed 22 mph    
Max Gust Speed 28 mph    
Visibility 10 miles    
Events Snow    
Averages and records for this station are not official NWS values.
T = Trace of Precipitation, MM = Missing Value Source: NWS Daily Summary

Daily Weather History Graph

Daily Weather History Graph

Search for Another Location

Airport or City:

Trip Planner

Search our weather history database for the weather conditions in past years. The results will help you decide how hot, cold, wet, or windy it might be!

Date:

Astronomy

Oct. 09, 2012 Rise Set
Actual Time 7:34 AM CDT 6:45 PM CDT
Civil Twilight 7:03 AM CDT 7:16 PM CDT
Nautical Twilight 6:27 AM CDT 7:51 PM CDT
Astronomical Twilight 5:51 AM CDT 8:27 PM CDT
Moon 12:46 AM CDT (10/9) 3:35 PM CDT (10/9)
Length of Visible Light 12h 13m
Length of Day
11h 11m
Last Quarter, 36% of the Moon is Illuminated
Oct 9
Last Quarter
Oct 15
New
Oct 21
First Quarter
Oct 29
Full
Nov 6
Last Quarter

Hourly Weather History & Observations

Time (CDT) Temp. Windchill Dew Point Humidity Pressure Visibility Wind Dir Wind Speed Gust Speed Precip Events Conditions
12:15 AM 39.2 °F 33.6 °F 37.4 °F 93% 29.63 in 10.0 mi SW 8.1 mph - N/A   Overcast
12:35 AM 39.2 °F 33.0 °F 37.4 °F 93% 29.64 in 10.0 mi WSW 9.2 mph - N/A   Overcast
12:56 AM 39.2 °F 33.0 °F 35.6 °F 87% 29.63 in 10.0 mi WSW 9.2 mph - N/A   Overcast
1:15 AM 39.2 °F 33.6 °F 35.6 °F 87% 29.63 in 10.0 mi WSW 8.1 mph - N/A   Mostly Cloudy
1:56 AM 39.2 °F 33.0 °F 33.8 °F 81% 29.64 in 10.0 mi West 9.2 mph - N/A   Overcast
2:15 AM 39.2 °F 32.5 °F 32.0 °F 75% 29.65 in 10.0 mi WSW 10.4 mph - N/A   Overcast
2:55 AM 39.2 °F 32.5 °F 30.2 °F 70% 29.65 in 10.0 mi WSW 10.4 mph - N/A   Overcast
3:15 AM 37.4 °F 29.8 °F 30.2 °F 75% 29.64 in 10.0 mi WSW 11.5 mph - N/A   Overcast
3:35 AM 37.4 °F 29.8 °F 30.2 °F 75% 29.64 in 10.0 mi WSW 11.5 mph 16.1 mph N/A   Overcast
3:55 AM 35.6 °F 28.6 °F 30.2 °F 81% 29.64 in 10.0 mi WSW 9.2 mph - N/A   Overcast
4:15 AM 35.6 °F 28.0 °F 28.4 °F 75% 29.64 in 10.0 mi WSW 10.4 mph - N/A   Overcast
4:35 AM 35.6 °F 28.0 °F 28.4 °F 75% 29.64 in 10.0 mi WSW 10.4 mph - N/A   Overcast
4:55 AM 35.6 °F 28.6 °F 28.4 °F 75% 29.64 in 10.0 mi WSW 9.2 mph - N/A   Overcast
5:15 AM 35.6 °F 27.5 °F 28.4 °F 75% 29.64 in 10.0 mi WSW 11.5 mph - N/A   Overcast
5:35 AM 35.6 °F 28.6 °F 28.4 °F 75% 29.64 in 10.0 mi WSW 9.2 mph - N/A   Overcast
5:55 AM 35.6 °F 28.0 °F 28.4 °F 75% 29.65 in 10.0 mi WSW 10.4 mph - N/A   Overcast
6:15 AM 33.8 °F 25.8 °F 28.4 °F 81% 29.65 in 10.0 mi WSW 10.4 mph - N/A   Mostly Cloudy
6:35 AM 33.8 °F 25.8 °F 28.4 °F 81% 29.65 in 10.0 mi WSW 10.4 mph - N/A   Mostly Cloudy
6:55 AM 33.8 °F 27.0 °F 28.4 °F 81% 29.65 in 10.0 mi WSW 8.1 mph - N/A   Overcast
7:15 AM 33.8 °F 25.8 °F 30.2 °F 87% 29.66 in 10.0 mi WSW 10.4 mph - N/A   Overcast
7:35 AM 33.8 °F 25.8 °F 30.2 °F 87% 29.66 in 10.0 mi WSW 10.4 mph - N/A   Overcast
7:55 AM 33.8 °F 25.8 °F 30.2 °F 87% 29.66 in 10.0 mi WSW 10.4 mph - N/A   Overcast
8:15 AM 33.8 °F 25.8 °F 30.2 °F 87% 29.67 in 10.0 mi West 10.4 mph - N/A   Overcast
8:35 AM 33.8 °F 26.4 °F 30.2 °F 87% 29.67 in 10.0 mi West 9.2 mph - N/A   Overcast
8:55 AM 35.6 °F 28.0 °F 32.0 °F 87% 29.67 in 10.0 mi West 10.4 mph - N/A   Overcast
9:15 AM 33.8 °F 25.3 °F 32.0 °F 93% 29.68 in 4.0 mi West 11.5 mph - N/A   Overcast
9:36 AM 33.8 °F 24.8 °F 33.8 °F 100% 29.69 in 5.0 mi West 12.7 mph - N/A   Overcast
9:55 AM 33.8 °F 24.8 °F 32.0 °F 93% 29.71 in 7.0 mi WNW 12.7 mph 19.6 mph N/A   Drizzle
10:15 AM 33.8 °F 22.8 °F 32.0 °F 93% 29.72 in 4.0 mi NNW 18.4 mph 26.5 mph N/A   Drizzle
10:36 AM 33.8 °F 22.8 °F 33.8 °F 100% 29.74 in 10.0 mi NNW 18.4 mph 27.6 mph N/A   Overcast
10:55 AM 33.8 °F 22.5 °F 30.2 °F 87% 29.75 in 10.0 mi NW 19.6 mph 27.6 mph N/A   Overcast
11:15 AM 33.8 °F 22.8 °F 30.2 °F 87% 29.76 in 10.0 mi NW 18.4 mph 27.6 mph N/A   Overcast
11:36 AM 35.6 °F 24.8 °F 30.2 °F 81% 29.77 in 10.0 mi NW 19.6 mph 24.2 mph N/A   Overcast
11:55 AM 35.6 °F 24.2 °F 30.2 °F 81% 29.78 in 10.0 mi NNW 21.9 mph 25.3 mph N/A   Overcast
12:15 PM 33.8 °F 22.5 °F 30.2 °F 87% 29.80 in 10.0 mi NW 19.6 mph 26.5 mph N/A   Overcast
12:36 PM 35.6 °F 25.5 °F 30.2 °F 81% 29.80 in 10.0 mi NW 17.3 mph 27.6 mph N/A   Overcast
12:55 PM 35.6 °F 25.9 °F 28.4 °F 75% 29.81 in 10.0 mi NW 16.1 mph 21.9 mph N/A   Overcast
1:15 PM 35.6 °F 24.8 °F 28.4 °F 75% 29.82 in 10.0 mi NW 19.6 mph 25.3 mph N/A   Overcast
1:36 PM 35.6 °F 25.2 °F 28.4 °F 75% 29.82 in 10.0 mi NNW 18.4 mph 27.6 mph N/A   Overcast
1:55 PM 37.4 °F 28.5 °F 28.4 °F 70% 29.82 in 10.0 mi NW 15.0 mph 25.3 mph N/A   Mostly Cloudy
2:15 PM 39.2 °F 30.8 °F 28.4 °F 65% 29.83 in 10.0 mi NW 15.0 mph 21.9 mph N/A   Mostly Cloudy
2:36 PM 37.4 °F 26.9 °F 28.4 °F 70% 29.83 in 10.0 mi NNW 20.7 mph 27.6 mph N/A   Overcast
2:55 PM 37.4 °F 27.8 °F 28.4 °F 70% 29.84 in 10.0 mi WNW 17.3 mph 24.2 mph N/A   Overcast
3:15 PM 37.4 °F 28.2 °F 28.4 °F 70% 29.85 in 10.0 mi NW 16.1 mph 21.9 mph N/A   Overcast
3:36 PM 37.4 °F 27.5 °F 26.6 °F 65% 29.86 in 10.0 mi NW 18.4 mph 25.3 mph N/A   Overcast
3:55 PM 37.4 °F 29.3 °F 28.4 °F 70% 29.87 in 10.0 mi WNW 12.7 mph 27.6 mph N/A   Overcast
4:15 PM 39.2 °F 31.2 °F 28.4 °F 65% 29.86 in 10.0 mi WNW 13.8 mph 21.9 mph N/A   Mostly Cloudy
4:36 PM 37.4 °F 27.2 °F 26.6 °F 65% 29.88 in 10.0 mi NW 19.6 mph - N/A   Overcast
4:55 PM 37.4 °F 29.3 °F 28.4 °F 70% 29.88 in 10.0 mi WNW 12.7 mph - N/A   Mostly Cloudy
5:15 PM 37.4 °F 28.2 °F 26.6 °F 65% 29.88 in 10.0 mi WNW 16.1 mph 19.6 mph N/A   Mostly Cloudy
5:36 PM 37.4 °F 29.3 °F 26.6 °F 65% 29.89 in 10.0 mi WNW 12.7 mph 17.3 mph N/A   Scattered Clouds
5:55 PM 39.2 °F 30.2 °F 28.4 °F 65% 29.90 in 10.0 mi NW 17.3 mph 25.3 mph N/A   Overcast
6:15 PM 37.4 °F 28.5 °F 26.6 °F 65% 29.91 in 10.0 mi WNW 15.0 mph 20.7 mph N/A   Overcast
6:36 PM 35.6 °F 27.5 °F 26.6 °F 70% 29.92 in 10.0 mi WNW 11.5 mph - N/A   Overcast
6:55 PM 33.8 °F 27.0 °F 28.4 °F 81% 29.93 in 10.0 mi WNW 8.1 mph 16.1 mph N/A   Overcast
7:15 PM 33.8 °F 24.3 °F 28.4 °F 81% 29.94 in 10.0 mi NW 13.8 mph 18.4 mph N/A   Overcast
7:36 PM 30.2 °F 24.3 °F 28.4 °F 93% 29.94 in 1.0 mi NNW 5.8 mph - N/A Snow Snow
7:55 PM 30.2 °F - 28.4 °F 93% 29.94 in 10.0 mi Calm Calm - 0.01 in   Mostly Cloudy
8:15 PM 30.2 °F 25.4 °F 28.4 °F 93% 29.94 in 10.0 mi WNW 4.6 mph - N/A   Mostly Cloudy
8:36 PM 30.2 °F 24.3 °F 28.4 °F 93% 29.95 in 10.0 mi West 5.8 mph - N/A   Mostly Cloudy
8:55 PM 30.2 °F 23.4 °F 28.4 °F 93% 29.95 in 10.0 mi West 6.9 mph - N/A   Scattered Clouds
9:15 PM 30.2 °F 23.4 °F 28.4 °F 93% 29.96 in 10.0 mi WNW 6.9 mph - N/A   Mostly Cloudy
9:36 PM 30.2 °F 21.9 °F 28.4 °F 93% 29.96 in 10.0 mi WNW 9.2 mph - N/A   Overcast
9:55 PM 30.2 °F 22.6 °F 28.4 °F 93% 29.96 in 10.0 mi WNW 8.1 mph - N/A   Overcast
10:15 PM 30.2 °F 21.9 °F 28.4 °F 93% 29.96 in 10.0 mi West 9.2 mph - N/A   Overcast
10:36 PM 30.2 °F 23.4 °F 26.6 °F 86% 29.96 in 10.0 mi WNW 6.9 mph - N/A   Mostly Cloudy
10:55 PM 30.2 °F 24.3 °F 26.6 °F 86% 29.97 in 10.0 mi WNW 5.8 mph - N/A   Mostly Cloudy
11:15 PM 28.4 °F 22.2 °F 26.6 °F 93% 29.97 in 10.0 mi West 5.8 mph - N/A   Mostly Cloudy
11:36 PM 28.4 °F 22.2 °F 26.6 °F 93% 29.97 in 10.0 mi West 5.8 mph - N/A   Scattered Clouds
11:55 PM 26.6 °F 22.6 °F 26.6 °F 100% 29.97 in 10.0 mi WNW 3.5 mph - N/A   Clear